Voltar ao catálogo

DELTA 1 DEB

AtivoSSO
NORAD 10841·DEBRIS·🇺🇸 United States

Lançado Jul 29, 1976 de Vandenberg Space Force Base

Loading…

Próximas Passagens (próximas 24 horas)

TLE

AtualizadoSource: Space-Track

Época: Sep 14, 2026, 10:50 UTC

1 10841U 76077CM  26257.45175019 -.00000024  00000-0  14197-3 0  9997
2 10841 101.9596 243.5521 0066125 307.5240 207.8538 12.53078463290823

Acompanhe DELTA 1 DEB em tempo real com AllMySat

Download on the App Store